This is the latest recevied weather packets stored in our database for station/object K5IDL. If no packets are shown the sender has not sent any weather packets the latest 1 day(s).
| Time | Temp. | Humidity | Pressure | Rain* | Wind** | Luminosity | Snow |
|---|---|---|---|---|---|---|---|
| 1778079360 | 12.78° C | 82% | 1015.7 hPa | 0 mm | - | 34 W/m² | - |
| 1778078150 | 12.78° C | 81% | 1015.7 hPa | 0 mm | - | 32 W/m² | - |
| 1778077243 | 12.78° C | 82% | 1015.4 hPa | 0 mm | - | 60 W/m² | - |
| 1778074818 | 12.78° C | 83% | 1014.6 hPa | 0 mm | - | 32 W/m² | - |
| 1778073304 | 12.22° C | 86% | 1014.2 hPa | 0 mm | - | 16 W/m² | - |
| 1778071790 | 11.67° C | 86% | 1014.3 hPa | 0 mm | - | 10 W/m² | - |
| 1778068764 | 12.22° C | 84% | 1013.8 hPa | 0 mm | - | 2 W/m² | - |
| 1778068462 | 12.22° C | 84% | 1013.3 hPa | 0 mm | - | 2 W/m² | - |
| 1778068160 | 12.78° C | 88% | 1013.7 hPa | 0 mm | - | 1 W/m² | - |
| 1778067857 | 12.78° C | 84% | 1013.7 hPa | 0 mm | - | 1 W/m² | - |
| 1778067556 | 12.78° C | 83% | 1013.4 hPa | 0 mm | - | 0 W/m² | - |
| 1778067253 | 12.78° C | 82% | 1013 hPa | 0 mm | - | 0 W/m² | - |
| 1778065739 | 12.78° C | 81% | 1013.1 hPa | 0 mm | - | 0 W/m² | - |
| 1778065133 | 13.33° C | 78% | 1012.9 hPa | 0 mm | - | 0 W/m² | - |
| 1778063917 | 13.33° C | 76% | 1012.6 hPa | 0 mm | - | 0 W/m² | - |
| 1778063009 | 13.33° C | 75% | 1011.9 hPa | 0 mm | - | 0 W/m² | - |
| 1778062706 | 13.89° C | 74% | 1011.9 hPa | 0 mm | - | 0 W/m² | - |
| 1778062100 | 13.89° C | 74% | 1011.6 hPa | 0 mm | - | 0 W/m² | - |
| 1778061193 | 13.89° C | 74% | 1011.5 hPa | 0 mm | - | 0 W/m² | - |
| 1778060890 | 13.89° C | 74% | 1011.2 hPa | 0 mm | - | 0 W/m² | - |
| 1778059983 | 14.44° C | 73% | 1011.3 hPa | 0 mm | - | 0 W/m² | - |
| 1778058773 | 14.44° C | 73% | 1011 hPa | 0 mm | - | 0 W/m² | - |
| 1778058471 | 15° C | 73% | 1010.9 hPa | 0 mm | - | 0 W/m² | - |
| 1778057864 | 15° C | 74% | 1010.9 hPa | 0 mm | - | 0 W/m² | - |
| 1778057257 | 15° C | 74% | 1011 hPa | 0 mm | - | 0 W/m² | - |
* Rain latest hour (hover to see other rain measurements)
** Current wind speed in m/s (hover to see current wind gust speed)